Location: Warner Observatory
(35.1353°N, 89.5455°W)
Time: 00:52:22
(UTC-06:00)

Envisat - Pass Details

Date: 31 January 2020
Orbit: 764 x 766 km, 98.1° (Epoch: 20 February)

Event Time Altitude Azimuth Distance (km) Brightness Sun altitude
Rises 17:42:42 0° 162° (SSE) 3,217 6.2 -4.2°
Reaches altitude 10° 17:45:00 10° 161° (SSE) 2,294 5.5 -4.6°
Maximum altitude 17:50:03 76° 76° (ENE) 790 3.0 -5.6°
Drops below altitude 10° 17:55:07 10° 351° (N) 2,307 5.4 -6.6°
Sets 17:57:26 0° 350° (N) 3,237 6.2 -7.1°
